TimeEDT,TemperatureF,Dew PointF,Humidity,Sea Level PressureIn,VisibilityMPH,Wind Direction,Wind SpeedMPH,Gust SpeedMPH,PrecipitationIn,Events,Conditions,WindDirDegrees,DateUTC
12:53 AM,72.0,64.0,76,30.01,10.0,SSE,3.5,-,N/A,,Clear,160,2013-05-30 04:53:00
1:53 AM,71.1,64.9,81,30.01,10.0,SSE,4.6,-,N/A,,Clear,160,2013-05-30 05:53:00
2:53 AM,70.0,64.9,84,30.01,10.0,SSE,4.6,-,N/A,,Clear,160,2013-05-30 06:53:00
3:53 AM,69.1,64.0,84,30.02,10.0,SSE,4.6,-,N/A,,Mostly Cloudy,160,2013-05-30 07:53:00
4:53 AM,69.1,64.0,84,30.01,10.0,SSE,5.8,-,N/A,,Clear,150,2013-05-30 08:53:00
5:53 AM,68.0,63.0,84,30.02,10.0,SSE,4.6,-,N/A,,Clear,150,2013-05-30 09:53:00
6:53 AM,69.1,64.0,84,30.04,10.0,SE,5.8,-,N/A,,Overcast,140,2013-05-30 10:53:00
7:53 AM,69.1,64.9,87,30.05,10.0,SSE,6.9,-,0.07,Rain,Light Rain,150,2013-05-30 11:53:00
8:53 AM,73.0,64.9,76,30.05,10.0,South,9.2,-,0.00,,Clear,180,2013-05-30 12:53:00
9:53 AM,77.0,66.0,69,30.05,10.0,South,11.5,-,N/A,,Clear,180,2013-05-30 13:53:00
10:53 AM,78.1,64.9,64,30.05,10.0,SSW,12.7,21.9,N/A,,Clear,210,2013-05-30 14:53:00
11:53 AM,82.0,66.9,60,30.03,10.0,South,19.6,28.8,N/A,,Partly Cloudy,190,2013-05-30 15:53:00
12:53 PM,82.9,66.0,56,30.03,10.0,SSW,10.4,18.4,N/A,,Mostly Cloudy,210,2013-05-30 16:53:00
1:53 PM,84.0,66.0,55,30.02,10.0,South,18.4,24.2,N/A,,Mostly Cloudy,190,2013-05-30 17:53:00
2:53 PM,82.9,66.0,56,30.00,10.0,South,16.1,26.5,N/A,,Partly Cloudy,190,2013-05-30 18:53:00
3:53 PM,82.0,66.0,58,29.99,10.0,South,15.0,23.0,N/A,,Partly Cloudy,170,2013-05-30 19:53:00
4:53 PM,84.0,66.0,55,29.96,10.0,South,12.7,23.0,N/A,,Partly Cloudy,170,2013-05-30 20:53:00
5:53 PM,82.0,66.9,60,29.95,10.0,South,11.5,19.6,N/A,,Scattered Clouds,170,2013-05-30 21:53:00
6:53 PM,82.9,66.9,58,29.95,10.0,South,11.5,19.6,N/A,,Clear,170,2013-05-30 22:53:00
7:53 PM,80.1,66.9,64,29.94,10.0,SSE,12.7,20.7,N/A,,Clear,160,2013-05-30 23:53:00
8:53 PM,79.0,66.0,64,29.95,10.0,South,11.5,18.4,N/A,,Partly Cloudy,170,2013-05-31 00:53:00
9:53 PM,78.1,66.0,66,29.95,10.0,South,8.1,-,0.00,,Scattered Clouds,180,2013-05-31 01:53:00
10:53 PM,77.0,66.9,71,29.97,10.0,South,9.2,-,N/A,,Clear,170,2013-05-31 02:53:00
11:53 PM,75.9,66.0,71,29.97,10.0,South,11.5,-,N/A,,Clear,170,2013-05-31 03:53:00